Overview Statistics Trail Chart Weather Telemetry Raw packets
 

This is the latest recevied weather packets stored in our database for station/object K8RRT. If no packets are shown the sender has not sent any weather packets the latest 10 day(s).

<< 88 89 90 91 92 93 94 >>
Time Temp. Humidity Pressure Rain* Wind** Luminosity Snow
1787961284 25.56° C 77% 1014.3 hPa 0 mm - 8 W/m² -
1787960979 26.67° C 74% 1014.2 hPa 0 mm - 11 W/m² -
1787960675 26.67° C 69% 1014.4 hPa 0 mm - 14 W/m² -
1787960373 26.67° C 68% 1014.2 hPa 0 mm - 18 W/m² -
1787960067 26.67° C 67% 1014.2 hPa 0 mm - 22 W/m² -
1787959763 27.22° C 65% 1014.1 hPa 0 mm - 27 W/m² -
1787959458 27.22° C 65% 1013.9 hPa 0 mm - 31 W/m² -
1787959153 27.22° C 66% 1014 hPa 0 mm - 35 W/m² -
1787958851 27.22° C 65% 1014.1 hPa 0 mm - 41 W/m² -
1787958543 27.78° C 65% 1013.9 hPa 0 mm - 46 W/m² -
1787958238 27.78° C 65% 1014 hPa 0 mm - 55 W/m² -
1787957932 27.78° C 63% 1013.9 hPa 0 mm - 72 W/m² -
1787957632 27.78° C 65% 1014 hPa 0 mm - 88 W/m² -
1787957328 27.78° C 63% 1014 hPa 0 mm - 99 W/m² -
1787957027 28.33° C 61% 1014.1 hPa 0 mm - 118 W/m² -
1787956725 28.33° C 62% 1013.8 hPa 0 mm - 128 W/m² -
1787956422 28.33° C 61% 1013.7 hPa 0 mm - 147 W/m² -
1787956117 28.33° C 59% 1013.9 hPa 0 mm - 143 W/m² -
1787955812 28.33° C 59% 1013.8 hPa 0 mm - 177 W/m² -
1787955507 28.33° C 57% 1013.8 hPa 0 mm - 161 W/m² -
1787955207 28.33° C 58% 1013.7 hPa 0 mm - 186 W/m² -
1787954902 28.89° C 57% 1014 hPa 0 mm - 225 W/m² -
1787954598 28.33° C 58% 1013.9 hPa 0 mm - 196 W/m² -
1787954297 28.33° C 56% 1013.7 hPa 0 mm - 236 W/m² -
1787953993 28.89° C 57% 1014 hPa 0 mm - 252 W/m² -

* Rain latest hour (hover to see other rain measurements)
** Current wind speed in m/s (hover to see current wind gust speed)